This demonstration page uses our WeatherBlox Daily Observations layout. Learn more.

Left ArrowRight Arrow

Hourly Observations for February 14, 2015

Temp ( °F °C ) Dew Point ( °F °C ) Humidity (%) Winds ( mph kmh ) Pressure ( in mb ) Visibility ( mi km ) Precip ( " mm )
12:15 am 00:15 Mostly Clear 43 6 28 -2 57 57 WSW 9 15 30.12 1020 10 16 0.00 0.00
12:35 am 00:35 Mostly Clear 43 6 27 -3 53 53 NNW 8 13 30.12 1020 10 16 0.00 0.00
12:55 am 00:55 Clear 43 6 28 -2 57 57 W 7 11 30.12 1020 10 16 0.00 0.00
1:15 am 01:15 Clear 37 3 27 -3 65 65 W 6 9 30.15 1021 10 16 0.00 0.00
1:35 am 01:35 Clear 41 5 28 -2 61 61 W 6 9 30.15 1021 10 16 0.00 0.00
1:55 am 01:55 Clear 41 5 28 -2 61 61 W 8 13 30.15 1021 10 16 0.00 0.00
2:15 am 02:15 Clear 41 5 28 -2 61 61 W 7 11 30.15 1021 10 16 0.00 0.00
2:35 am 02:35 Clear 39 4 28 -2 65 65 WNW 6 9 30.12 1020 10 16 0.00 0.00
2:55 am 02:55 Clear 37 3 28 -2 70 70 W 7 11 30.15 1021 10 16 0.00 0.00
3:15 am 03:15 Clear 36 2 28 -2 75 75 N 12 19 30.18 1022 10 16 0.00 0.00
3:35 am 03:35 Clear 36 2 28 -2 75 75 N 12 19 30.18 1022 10 16 0.00 0.00
3:55 am 03:55 Clear 36 2 28 -2 75 75 NNW 9 15 30.18 1022 10 16 0.00 0.00
4:15 am 04:15 Clear 36 2 28 -2 75 75 NNW 13 20 30.18 1022 10 16 0.00 0.00
4:35 am 04:35 Clear 34 1 27 -3 75 75 N 12 19 30.21 1023 10 16 0.00 0.00
4:55 am 04:55 Clear 34 1 27 -3 75 75 N 12 19 30.21 1023 10 16 0.00 0.00
5:15 am 05:15 Clear 30 -1 25 -4 80 80 N 9 15 30.24 1024 10 16 0.00 0.00
5:35 am 05:35 Clear 28 -2 25 -4 86 86 NNE 8 13 30.24 1024 10 16 0.00 0.00
5:55 am 05:55 Clear 30 -1 25 -4 80 80 N 9 15 30.24 1024 10 16 0.00 0.00
6:15 am 06:15 Clear 30 -1 25 -4 80 80 N 7 11 30.27 1025 10 16 0.00 0.00
6:35 am 06:35 Clear 30 -1 25 -4 80 80 N 8 13 30.27 1025 10 16 0.00 0.00
6:55 am 06:55 Clear 28 -2 23 -5 80 80 NNE 6 9 30.27 1025 10 16 0.00 0.00
7:15 am 07:15 Clear 28 -2 25 -4 86 86 NE 9 15 30.30 1026 10 16 0.00 0.00
7:35 am 07:35 Sunny 28 -2 23 -5 80 80 NNE 9 15 30.30 1026 10 16 0.00 0.00
7:55 am 07:55 Sunny 28 -2 25 -4 86 86 NNE 15 24 30.33 1027 10 16 0.00 0.00
8:15 am 08:15 Sunny 28 -2 25 -4 86 86 NNE 12 19 30.33 1027 10 16 0.00 0.00
8:35 am 08:35 Mostly Sunny 30 -1 25 -4 80 80 NE 16 26 30.36 1028 10 16 0.00 0.00
8:55 am 08:55 Mostly Cloudy 28 -2 25 -4 86 86 NE 21 33 30.36 1028 10 16 0.00 0.00
9:15 am 09:15 Cloudy 28 -2 25 -4 86 86 NE 17 28 30.39 1029 10 16 0.00 0.00
9:35 am 09:35 Cloudy 28 -2 25 -4 86 86 NE 24 39 30.39 1029 10 16 0.00 0.00
9:55 am 09:55 Cloudy 28 -2 23 -5 80 80 NE 21 33 30.39 1029 10 16 0.00 0.00
10:15 am 10:15 Cloudy 27 -3 21 -6 80 80 NE 23 37 30.42 1030 10 16 0.00 0.00
10:35 am 10:35 Cloudy 27 -3 21 -6 80 80 NE 23 37 30.45 1031 10 16 0.00 0.00
10:55 am 10:55 Cloudy 27 -3 21 -6 80 80 NE 21 33 30.45 1031 10 16 0.00 0.00
11:15 am 11:15 Cloudy 27 -3 19 -7 74 74 NE 22 35 30.45 1031 10 16 0.00 0.00
11:35 am 11:35 Cloudy 27 -3 18 -8 69 69 NE 20 31 30.48 1032 10 16 0.00 0.00
11:55 am 11:55 Cloudy 27 -3 18 -8 69 69 NE 22 35 30.48 1032 10 16 0.00 0.00
12:15 pm 12:15 Cloudy 25 -4 16 -9 69 69 NE 20 31 30.48 1032 10 16 0.00 0.00
12:35 pm 12:35 Cloudy 27 -3 16 -9 64 64 NE 20 31 30.45 1031 10 16 0.00 0.00
12:55 pm 12:55 Cloudy 27 -3 16 -9 64 64 NE 22 35 30.45 1031 10 16 0.00 0.00
1:15 pm 13:15 Mostly Cloudy 27 -3 14 -10 59 59 NE 18 30 30.45 1031 10 16 0.00 0.00
1:35 pm 13:35 Partly Cloudy 28 -2 12 -11 51 51 ENE 20 31 30.42 1030 10 16 0.00 0.00
1:55 pm 13:55 Mostly Sunny 28 -2 10 -12 47 47 NE 18 30 30.42 1030 10 16 0.00 0.00
2:15 pm 14:15 Sunny 27 -3 7 -14 43 43 ENE 15 24 30.45 1031 10 16 0.00 0.00
2:35 pm 14:35 Sunny 28 -2 3 -16 34 34 ENE 20 31 30.39 1029 10 16 0.00 0.00
2:55 pm 14:55 Sunny 28 -2 7 -14 40 40 E 13 20 30.39 1029 10 16 0.00 0.00
3:15 pm 15:15 Sunny 28 -2 7 -14 40 40 ENE 16 26 30.39 1029 10 16 0.00 0.00
3:35 pm 15:35 Sunny 27 -3 1 -17 33 33 E 16 26 30.45 1031 10 16 0.00 0.00
3:55 pm 15:55 Sunny 25 -4 0 -18 33 33 ENE 15 24 30.42 1030 10 16 0.00 0.00
4:15 pm 16:15 Mostly Cloudy 25 -4 -2 -19 30 30 ENE 15 24 30.42 1030 10 16 0.00 0.00
4:35 pm 16:35 Cloudy 23 -5 0 -18 36 36 ENE 14 22 30.45 1031 10 16 0.00 0.00
4:55 pm 16:55 Cloudy 23 -5 1 -17 39 39 ENE 12 19 30.42 1030 10 16 0.00 0.00
5:15 pm 17:15 Mostly Cloudy 21 -6 1 -17 42 42 ENE 14 22 30.42 1030 10 16 0.00 0.00
5:35 pm 17:35 Cloudy 21 -6 3 -16 45 45 E 14 22 30.42 1030 10 16 0.00 0.00
5:55 pm 17:55 Mostly Cloudy 21 -6 3 -16 45 45 E 13 20 30.42 1030 10 16 0.00 0.00
6:15 pm 18:15 Mostly Clear 21 -6 1 -17 42 42 E 16 26 30.42 1030 10 16 0.00 0.00
6:35 pm 18:35 Clear 21 -6 1 -17 42 42 E 12 19 30.42 1030 10 16 0.00 0.00
6:55 pm 18:55 Clear 21 -6 1 -17 42 42 E 16 26 30.48 1032 10 16 0.00 0.00
7:15 pm 19:15 Clear 19 -7 1 -17 45 45 E 13 20 30.48 1032 10 16 0.00 0.00
7:35 pm 19:35 Clear 19 -7 0 -18 42 42 E 13 20 30.48 1032 10 16 0.00 0.00
7:55 pm 19:55 Clear 19 -7 0 -18 42 42 E 16 26 30.48 1032 10 16 0.00 0.00
8:15 pm 20:15 Clear 18 -8 1 -17 49 49 E 13 20 30.48 1032 10 16 0.00 0.00
8:35 pm 20:35 Clear 18 -8 1 -17 49 49 E 13 20 30.48 1032 10 16 0.00 0.00
8:55 pm 20:55 Clear 18 -8 1 -17 49 49 E 10 17 30.48 1032 10 16 0.00 0.00
9:15 pm 21:15 Clear 18 -8 1 -17 49 49 E 10 17 30.48 1032 10 16 0.00 0.00
9:35 pm 21:35 Clear 18 -8 1 -17 49 49 E 12 19 30.48 1032 10 16 0.00 0.00
9:55 pm 21:55 Clear 18 -8 1 -17 49 49 ESE 13 20 30.48 1032 10 16 0.00 0.00
10:15 pm 22:15 Clear 18 -8 0 -18 45 45 E 14 22 30.48 1032 10 16 0.00 0.00
10:35 pm 22:35 Clear 18 -8 0 -18 45 45 E 13 20 30.48 1032 10 16 0.00 0.00
10:55 pm 22:55 Clear 18 -8 1 -17 49 49 E 12 19 30.48 1032 10 16 0.00 0.00
11:15 pm 23:15 Clear 18 -8 1 -17 49 49 E 10 17 30.48 1032 10 16 0.00 0.00
11:35 pm 23:35 Clear 18 -8 1 -17 49 49 ESE 8 13 30.45 1031 10 16 0.00 0.00
11:55 pm 23:55 Clear 18 -8 1 -17 49 49 ESE 9 15 30.45 1031 10 16 0.00 0.00

Powered by AerisWeather